Date String (YYYY-MM-DD hh:mm:ss) UTC,Instrument flags,absolute air pressure of the measurement (hPa),sample flow rate (lpm),inlet stack bypass flow (lpm),air temperature of the measurement (°C),ambient temperature measured by the external sensor (°C),aerosol sample conditioner tube jacket temperature (°C),OPC LED temperature (°C),internal box temperature (°C),relative humidity of the measurement (%),span deviation,mass concentration of particles derived from Lorenz-Mie calculation of OPC scattering (μg/m³),mass concentration of particles derived from Lorenz-Mie calculation of OPC scattering (μg/m³),mass concentration of particles derived from Lorenz-Mie calculation of OPC scattering (μg/m³)
DateTimeUTC,F1_M11,P_M11,Q1_M11,Q2_M11,T1_M11,T2_M11,T3_M11,T4_M11,T5_M11,U1_M11,ZSPAN_M11,X0_M11,X2_M11,X1_M11
2024-05-16 05:00:00,SystemResetWarning,0829.3,5.00,000.00,025.5,024.8,000.0,033.8,027.3,028.6,0000.0,0008.49,0003.27,0002.06
2024-05-16 05:01:00,SystemResetWarning,0829.3,5.01,000.00,025.5,024.8,000.0,033.8,027.3,028.6,0000.0,0008.39,0003.26,0002.06
2024-05-16 05:02:00,SystemResetWarning,0829.4,5.01,000.00,025.5,024.8,000.0,033.8,027.3,028.6,0000.0,0008.77,0003.24,0002.05
2024-05-16 05:03:00,SystemResetWarning,0829.3,5.00,000.00,025.5,024.8,000.0,033.8,027.3,028.5,0000.0,0008.82,0003.25,0002.05
2024-05-16 05:04:00,SystemResetWarning,0829.3,5.00,000.00,025.5,024.8,000.0,033.8,027.3,028.5,0000.0,0008.67,0003.23,0002.03
2024-05-16 05:05:00,SystemResetWarning,0829.4,5.01,000.00,025.5,024.8,000.0,033.9,027.3,028.4,0000.0,0008.51,0003.21,0002.02
2024-05-16 05:06:00,SystemResetWarning,0829.3,4.99,000.00,025.5,024.8,000.0,033.9,027.4,028.4,0000.0,0008.07,0003.21,0002.02
2024-05-16 05:07:00,SystemResetWarning,0829.3,5.00,000.00,025.5,024.8,000.0,033.9,027.3,028.4,0000.0,0007.40,0003.20,0002.01
2024-05-16 05:08:00,SystemResetWarning,0829.3,5.01,000.00,025.5,024.8,000.0,033.9,027.3,028.4,0000.0,0007.40,0003.25,0002.02
2024-05-16 05:09:00,SystemResetWarning,0829.3,5.00,000.00,025.5,024.8,000.0,033.8,027.4,028.5,0000.0,0008.04,0003.29,0002.00
2024-05-16 05:10:00,SystemResetWarning,0829.3,5.00,000.00,025.5,024.8,000.0,033.8,027.4,028.4,0000.0,0008.24,0003.32,0001.99
2024-05-16 05:11:00,SystemResetWarning,0829.3,5.00,000.00,025.5,024.8,000.0,033.9,027.4,028.5,0000.0,0008.27,0003.31,0001.99
2024-05-16 05:12:00,SystemResetWarning,0829.4,4.99,000.00,025.5,024.9,000.0,033.9,027.4,028.4,0000.0,0008.23,0003.26,0001.98
2024-05-16 05:13:00,SystemResetWarning,0829.4,4.99,000.00,025.6,024.9,000.0,033.9,027.4,028.4,0000.0,0007.94,0003.28,0002.00
2024-05-16 05:14:00,SystemResetWarning,0829.4,5.00,000.00,025.6,024.9,000.0,033.9,027.4,028.4,0000.0,0007.67,0003.26,0001.98
2024-05-16 05:15:00,SystemResetWarning,0829.3,5.00,000.00,025.6,024.9,000.0,033.9,027.4,028.4,0000.0,0008.05,0003.26,0001.98
2024-05-16 05:16:00,SystemResetWarning,0829.4,5.00,000.00,025.6,024.9,000.0,033.9,027.4,028.4,0000.0,0008.16,0003.27,0001.98
2024-05-16 05:17:00,SystemResetWarning,0829.3,5.00,000.00,025.6,024.9,000.0,033.9,027.4,028.4,0000.0,0008.07,0003.23,0001.99
2024-05-16 05:18:00,SystemResetWarning,0829.3,5.00,000.00,025.6,024.9,000.0,033.9,027.4,028.4,0000.0,0007.95,0003.19,0001.98
2024-05-16 05:19:00,SystemResetWarning,0829.4,4.99,000.00,025.6,024.9,000.0,033.9,027.4,028.5,0000.0,0007.73,0003.14,0001.98
2024-05-16 05:20:00,SystemResetWarning,0829.3,5.00,000.00,025.6,024.9,000.0,033.9,027.4,028.4,0000.0,0007.11,0003.12,0001.99
2024-05-16 05:21:00,SystemResetWarning,0829.4,4.99,000.00,025.6,024.9,000.0,033.9,027.4,028.4,0000.0,0007.13,0003.10,0001.98
2024-05-16 05:22:00,SystemResetWarning,0829.4,5.00,000.00,025.6,024.9,000.0,033.9,027.4,028.3,0000.0,0007.46,0003.11,0001.96
2024-05-16 05:23:00,SystemResetWarning,0829.3,5.00,000.00,025.6,024.9,000.0,033.9,027.4,028.4,0000.0,0007.42,0003.12,0001.94
2024-05-16 05:24:00,SystemResetWarning,0829.4,5.00,000.00,025.6,024.9,000.0,033.9,027.5,028.3,0000.0,0007.46,0003.11,0001.92
2024-05-16 05:25:00,SystemResetWarning,0829.3,5.01,000.00,025.7,025.0,000.0,033.9,027.5,028.3,0000.0,0007.31,0003.07,0001.92
2024-05-16 05:26:00,SystemResetWarning,0829.4,5.00,000.00,025.7,025.0,000.0,033.9,027.5,028.3,0000.0,0006.30,0002.97,0001.91
2024-05-16 05:27:00,SystemResetWarning,0829.3,5.00,000.00,025.7,025.0,000.0,033.9,027.5,028.3,0000.0,0006.03,0002.90,0001.89
2024-05-16 05:28:00,SystemResetWarning,0829.4,5.00,000.00,025.7,025.0,000.0,033.9,027.5,028.3,0000.0,0006.17,0002.92,0001.87
2024-05-16 05:29:00,SystemResetWarning,0829.4,4.99,000.00,025.7,025.0,000.0,033.9,027.5,028.3,0000.0,0006.48,0002.94,0001.86
2024-05-16 05:30:00,SystemResetWarning,0829.4,5.00,000.00,025.7,025.0,000.0,033.9,027.5,028.3,0000.0,0006.56,0002.89,0001.84
2024-05-16 05:31:00,SystemResetWarning,0829.3,5.01,000.00,025.7,025.0,000.0,033.9,027.5,028.3,0000.0,0006.30,0002.85,0001.82
2024-05-16 05:32:00,SystemResetWarning,0829.3,5.01,000.00,025.7,025.0,000.0,033.9,027.5,028.3,0000.0,0006.01,0002.81,0001.82
2024-05-16 05:33:00,SystemResetWarning,0829.4,5.01,000.00,025.7,025.0,000.0,034.0,027.5,028.3,0000.0,0005.53,0002.80,0001.81
2024-05-16 05:34:00,SystemResetWarning,0829.4,4.98,000.00,025.7,025.0,000.0,034.0,027.5,028.2,0000.0,0005.50,0002.76,0001.80
2024-05-16 05:35:00,SystemResetWarning,0829.3,4.99,000.00,025.7,025.1,000.0,034.0,027.6,028.2,0000.0,0005.48,0002.73,0001.81
2024-05-16 05:36:00,SystemResetWarning,0829.3,5.00,000.00,025.7,025.1,000.0,034.0,027.6,028.2,0000.0,0005.63,0002.73,0001.81
2024-05-16 05:37:00,SystemResetWarning,0829.3,5.01,000.00,025.7,025.1,000.0,034.0,027.6,028.2,0000.0,0005.62,0002.74,0001.83
2024-05-16 05:38:00,SystemResetWarning,0829.4,5.01,000.00,025.8,025.1,000.0,034.0,027.6,028.2,0000.0,0005.50,0002.70,0001.83
2024-05-16 05:39:00,SystemResetWarning,0829.3,4.99,000.00,025.8,025.1,000.0,034.0,027.6,028.2,0000.0,0005.27,0002.64,0001.83
2024-05-16 05:40:00,SystemResetWarning,0829.3,4.99,000.00,025.8,025.1,000.0,034.0,027.6,028.2,0000.0,0004.91,0002.61,0001.83
2024-05-16 05:41:00,SystemResetWarning,0829.3,5.01,000.00,025.8,025.1,000.0,034.0,027.6,028.2,0000.0,0004.61,0002.61,0001.85
2024-05-16 05:42:00,SystemResetWarning,0829.3,5.01,000.00,025.8,025.1,000.0,034.0,027.7,028.1,0000.0,0004.44,0002.55,0001.84
2024-05-16 05:43:00,SystemResetWarning,0829.3,5.00,000.00,025.8,025.2,000.0,034.0,027.7,028.0,0000.0,0004.46,0002.59,0001.85
2024-05-16 05:44:00,SystemResetWarning,0829.3,4.98,000.00,025.8,025.2,000.0,034.0,027.7,027.8,0000.0,0004.45,0002.57,0001.85
2024-05-16 05:45:00,SystemResetWarning,0829.3,4.99,000.00,025.8,025.2,000.0,034.0,027.7,027.7,0000.0,0004.41,0002.55,0001.85
2024-05-16 05:46:00,SystemResetWarning,0829.4,5.01,000.00,025.8,025.2,000.0,034.1,027.7,027.5,0000.0,0004.29,0002.53,0001.84
2024-05-16 05:47:00,SystemResetWarning,0829.4,5.01,000.00,025.9,025.2,000.0,034.1,027.7,027.1,0000.0,0003.96,0002.45,0001.83
2024-05-16 05:48:00,SystemResetWarning,0829.3,5.00,000.00,025.9,025.2,000.0,034.1,027.7,027.2,0000.0,0003.86,0002.41,0001.81
2024-05-16 05:49:00,SystemResetWarning,0829.3,5.00,000.00,025.9,025.2,000.0,034.1,027.8,027.3,0000.0,0003.83,0002.42,0001.80
2024-05-16 05:50:00,SystemResetWarning,0829.3,5.00,000.00,025.9,025.2,000.0,034.1,027.8,027.5,0000.0,0003.69,0002.38,0001.80
2024-05-16 05:51:00,SystemResetWarning,0829.3,5.00,000.00,025.9,025.2,000.0,034.1,027.8,027.5,0000.0,0003.59,0002.33,0001.80
2024-05-16 05:52:00,SystemResetWarning,0829.4,5.00,000.00,025.9,025.2,000.0,034.1,027.7,027.4,0000.0,0003.68,0002.35,0001.78
2024-05-16 05:53:00,SystemResetWarning,0829.2,5.00,000.00,025.7,023.4,000.0,034.2,026.7,027.6,0000.0,0003.61,0002.33,0001.77
2024-05-16 05:54:00,SystemResetWarning,0829.2,5.00,000.00,025.2,021.9,000.0,034.2,025.9,028.4,0000.0,0003.46,0002.29,0001.77
2024-05-16 05:55:00,SystemResetWarning,0829.2,5.01,000.00,025.0,021.9,000.0,034.0,025.7,029.0,0000.0,0003.32,0002.24,0001.75
2024-05-16 05:56:00,SystemResetWarning,0829.2,5.00,000.00,024.9,022.3,000.0,033.9,026.0,029.3,0000.0,0003.27,0002.24,0001.74
2024-05-16 05:57:00,SystemResetWarning,0829.2,5.00,000.00,024.9,022.7,000.0,033.7,026.2,029.3,0000.0,0003.35,0002.25,0001.75
2024-05-16 05:58:00,SystemResetWarning,0829.2,5.00,000.00,024.9,023.0,000.0,033.7,026.4,029.2,0000.0,0003.50,0002.31,0001.76
2024-05-16 05:59:00,SystemResetWarning,0829.2,5.00,000.00,024.9,023.3,000.0,033.6,026.5,029.4,0000.0,0003.52,0002.30,0001.76
